TimeEDT,TemperatureF,Dew PointF,Humidity,Sea Level PressureIn,VisibilityMPH,Wind Direction,Wind SpeedMPH,Gust SpeedMPH,PrecipitationIn,Events,Conditions,WindDirDegrees,DateUTC
12:15 AM,49.5,28.9,45,30.15,10.0,WNW,8.1,-,N/A,,Scattered Clouds,290,2012-10-11 04:15:00
12:35 AM,49.6,28.6,44,30.15,10.0,West,6.9,-,N/A,,Scattered Clouds,270,2012-10-11 04:35:00
12:55 AM,49.6,29.7,46,30.15,10.0,West,5.8,-,N/A,,Mostly Cloudy,270,2012-10-11 04:55:00
1:15 AM,49.8,30.6,48,30.15,10.0,West,8.1,-,N/A,,Mostly Cloudy,280,2012-10-11 05:15:00
1:35 AM,49.5,30.0,47,30.14,10.0,West,8.1,-,N/A,,Scattered Clouds,270,2012-10-11 05:35:00
1:55 AM,49.1,31.3,50,30.15,10.0,West,6.9,-,N/A,,Scattered Clouds,270,2012-10-11 05:55:00
2:15 AM,49.6,30.7,48,30.14,10.0,West,8.1,-,N/A,,Scattered Clouds,260,2012-10-11 06:15:00
2:36 AM,49.1,30.7,49,30.14,10.0,Calm,Calm,-,N/A,,Clear,0,2012-10-11 06:36:00
2:55 AM,48.9,31.5,51,30.15,10.0,West,4.6,-,N/A,,Clear,260,2012-10-11 06:55:00
3:15 AM,48.7,31.8,52,30.15,10.0,Calm,Calm,-,N/A,,Clear,0,2012-10-11 07:15:00
3:55 AM,40.1,33.3,77,30.14,10.0,South,6.9,-,N/A,,Scattered Clouds,170,2012-10-11 07:55:00
4:15 AM,39.0,33.3,80,30.14,10.0,South,5.8,-,N/A,,Scattered Clouds,170,2012-10-11 08:15:00
4:35 AM,38.3,33.1,81,30.14,10.0,South,5.8,-,N/A,,Scattered Clouds,170,2012-10-11 08:35:00
4:55 AM,38.3,33.3,82,30.14,10.0,South,5.8,-,N/A,,Clear,180,2012-10-11 08:55:00
5:15 AM,37.9,33.3,83,30.14,10.0,South,3.5,-,N/A,,Clear,180,2012-10-11 09:15:00
5:35 AM,37.9,33.6,84,30.14,10.0,South,4.6,-,N/A,,Clear,180,2012-10-11 09:35:00
5:56 AM,39.6,32.7,76,30.14,10.0,South,6.9,-,N/A,,Clear,190,2012-10-11 09:56:00
6:15 AM,40.8,31.6,70,30.14,10.0,SSW,6.9,-,N/A,,Clear,210,2012-10-11 10:15:00
6:35 AM,41.9,30.7,65,30.14,10.0,SSW,8.1,-,N/A,,Clear,200,2012-10-11 10:35:00
6:55 AM,42.3,30.0,62,30.14,10.0,SSW,6.9,-,N/A,,Clear,200,2012-10-11 10:55:00
7:15 AM,42.3,29.8,61,30.13,10.0,South,9.2,-,N/A,,Clear,190,2012-10-11 11:15:00
7:35 AM,41.9,30.2,63,30.12,10.0,SSW,9.2,-,N/A,,Clear,200,2012-10-11 11:35:00
7:55 AM,41.7,30.4,64,30.12,10.0,South,10.4,-,N/A,,Clear,190,2012-10-11 11:55:00
8:15 AM,41.9,30.7,65,30.11,10.0,SSW,9.2,19.6,N/A,,Clear,200,2012-10-11 12:15:00
8:36 AM,42.1,31.1,65,30.12,10.0,SSW,9.2,-,N/A,,Clear,200,2012-10-11 12:36:00
8:55 AM,43.2,32.0,65,30.12,10.0,South,8.1,-,N/A,,Clear,190,2012-10-11 12:55:00
9:15 AM,45.7,33.1,61,30.12,10.0,SSW,10.4,-,N/A,,Clear,200,2012-10-11 13:15:00
9:35 AM,48.4,34.7,59,30.12,10.0,SSW,11.5,17.3,N/A,,Clear,210,2012-10-11 13:35:00
9:55 AM,50.0,35.8,58,30.12,10.0,SSW,10.4,18.4,N/A,,Clear,210,2012-10-11 13:55:00
10:15 AM,50.9,36.3,57,30.11,10.0,SSW,13.8,18.4,N/A,,Clear,210,2012-10-11 14:15:00
10:35 AM,52.5,36.3,54,30.11,10.0,SSW,15.0,23.0,N/A,,Clear,210,2012-10-11 14:35:00
10:55 AM,54.5,36.9,51,30.10,10.0,SW,17.3,24.2,N/A,,Clear,220,2012-10-11 14:55:00
11:15 AM,54.1,36.7,52,30.10,10.0,SW,18.4,29.9,N/A,,Clear,220,2012-10-11 15:15:00
11:35 AM,55.6,37.6,51,30.10,10.0,SW,19.6,35.7,N/A,,Scattered Clouds,230,2012-10-11 15:35:00
11:55 AM,56.8,38.3,50,30.10,10.0,SW,18.4,29.9,N/A,,Scattered Clouds,230,2012-10-11 15:55:00
12:15 PM,56.3,37.0,48,30.09,10.0,SW,23.0,32.2,N/A,,Clear,220,2012-10-11 16:15:00
12:35 PM,57.2,37.0,47,30.08,10.0,SW,19.6,32.2,N/A,,Clear,220,2012-10-11 16:35:00
12:55 PM,57.7,36.7,45,30.08,10.0,SW,16.1,36.8,N/A,,Clear,220,2012-10-11 16:55:00
1:15 PM,58.8,37.4,45,30.08,10.0,SW,20.7,32.2,N/A,,Clear,220,2012-10-11 17:15:00
1:55 PM,59.0,37.0,44,30.06,10.0,SW,20.7,33.4,N/A,,Clear,220,2012-10-11 17:55:00
2:15 PM,59.0,37.0,44,30.05,10.0,SW,18.4,29.9,N/A,,Clear,220,2012-10-11 18:15:00
2:35 PM,59.4,37.4,44,30.05,10.0,SW,18.4,25.3,N/A,,Clear,220,2012-10-11 18:35:00
2:55 PM,60.8,37.6,42,30.06,10.0,WSW,13.8,28.8,N/A,,Clear,240,2012-10-11 18:55:00
3:15 PM,60.8,37.2,42,30.05,10.0,SW,23.0,27.6,N/A,,Clear,230,2012-10-11 19:15:00
3:35 PM,61.0,37.4,42,30.05,10.0,SW,20.7,26.5,N/A,,Clear,230,2012-10-11 19:35:00
3:55 PM,61.2,37.6,42,30.04,10.0,SW,19.6,27.6,N/A,,Clear,230,2012-10-11 19:55:00
4:15 PM,61.5,37.4,41,30.05,10.0,SW,18.4,28.8,N/A,,Clear,230,2012-10-11 20:15:00
4:35 PM,61.3,38.3,43,30.05,10.0,WSW,17.3,23.0,N/A,,Clear,240,2012-10-11 20:35:00
4:55 PM,61.7,39.2,43,30.05,10.0,SW,12.7,27.6,N/A,,Clear,230,2012-10-11 20:55:00
5:15 PM,61.9,39.6,44,30.03,10.0,WSW,16.1,24.2,N/A,,Clear,240,2012-10-11 21:15:00
6:15 PM,61.9,43.0,50,30.03,10.0,WSW,8.1,16.1,N/A,,Clear,240,2012-10-11 22:15:00
6:35 PM,61.9,43.2,50,30.03,10.0,SW,12.7,18.4,N/A,,Mostly Cloudy,230,2012-10-11 22:35:00
6:55 PM,61.9,42.6,49,30.04,10.0,SW,12.7,23.0,N/A,,Overcast,230,2012-10-11 22:55:00
7:15 PM,59.4,45.9,61,30.06,10.0,NNW,11.5,20.7,N/A,,Overcast,330,2012-10-11 23:15:00
7:35 PM,57.2,43.0,59,30.07,10.0,NNW,10.4,16.1,N/A,,Overcast,340,2012-10-11 23:35:00
7:55 PM,56.5,46.0,68,30.09,10.0,North,8.1,19.6,N/A,,Overcast,350,2012-10-11 23:55:00
8:15 PM,55.8,45.5,68,30.10,10.0,North,13.8,19.6,N/A,,Overcast,350,2012-10-12 00:15:00
8:35 PM,54.5,46.2,74,30.10,10.0,North,13.8,21.9,N/A,,Overcast,360,2012-10-12 00:35:00
9:15 PM,52.9,45.1,75,30.14,10.0,North,9.2,-,N/A,,Overcast,350,2012-10-12 01:15:00
9:35 PM,52.7,44.6,74,30.14,10.0,North,10.4,17.3,N/A,,Overcast,360,2012-10-12 01:35:00
9:55 PM,51.3,43.3,74,30.16,10.0,NNW,12.7,19.6,N/A,Rain,Light Rain,340,2012-10-12 01:55:00
10:15 PM,50.5,43.0,75,30.17,10.0,NNW,8.1,-,N/A,Rain,Light Rain,330,2012-10-12 02:15:00
10:55 PM,49.5,43.7,81,30.19,10.0,NNW,10.4,17.3,N/A,Rain,Light Rain,340,2012-10-12 02:55:00
11:15 PM,48.4,44.1,85,30.20,7.0,North,5.8,16.1,N/A,Rain,Light Rain,360,2012-10-12 03:15:00
11:35 PM,47.7,43.5,86,30.21,7.0,North,5.8,-,N/A,Rain,Rain,10,2012-10-12 03:35:00
11:55 PM,47.5,43.7,87,30.21,7.0,North,5.8,-,N/A,Rain,Rain,350,2012-10-12 03:55:00